Previsão horária em Centar

Hoje, 25 Julho, Domingo

Tempo Temperatura Precipitação Vento Pressão Humidade
00:00 +20°C° 0 mm 1 m/s 733 mmHg 59%
01:00 +20°C° 0 mm 1 m/s 733 mmHg 61%
02:00 +20°C° 0 mm 1 m/s 733 mmHg 63%
03:00 +19°C° 0 mm 1 m/s 733 mmHg 65%
04:00 +19°C° 0 mm 1 m/s 733 mmHg 67%
05:00 +21°C° 0 mm 1 m/s 733 mmHg 59%
06:00 +21°C° 0 mm 0 m/s 733 mmHg 52%
07:00 +24°C° 0 mm 0 m/s 734 mmHg 43%
08:00 +28°C° 0 mm 1 m/s 734 mmHg 37%
09:00 +30°C° 0 mm 1 m/s 734 mmHg 30%
10:00 +33°C° 0 mm 1 m/s 734 mmHg 24%
11:00 +35°C° 0 mm 2 m/s 733 mmHg 22%
12:00 +36°C° 0 mm 2 m/s 733 mmHg 20%
13:00 +37°C° 0 mm 2 m/s 732 mmHg 18%
14:00 +38°C° 0 mm 2 m/s 732 mmHg 18%
15:00 +38°C° 0 mm 3 m/s 732 mmHg 18%
16:00 +38°C° 0 mm 3 m/s 732 mmHg 17%
17:00 +36°C° 0 mm 2 m/s 731 mmHg 21%
18:00 +32°C° 0 mm 2 m/s 731 mmHg 25%
19:00 +30°C° 0 mm 1 m/s 731 mmHg 29%
20:00 +28°C° 0 mm 1 m/s 732 mmHg 31%
21:00 +27°C° 0 mm 1 m/s 732 mmHg 34%
22:00 +26°C° 0 mm 1 m/s 733 mmHg 36%
23:00 +25°C° 0 mm 1 m/s 733 mmHg 39%

Amanhã, 26 Julho, Segunda-feira

Tempo Temperatura Precipitação Vento Pressão Humidade
00:00 +24°C° 0 mm 1 m/s 733 mmHg 41%
01:00 +23°C° 0 mm 1 m/s 733 mmHg 44%
02:00 +23°C° 0 mm 1 m/s 733 mmHg 47%
03:00 +22°C° 0 mm 1 m/s 733 mmHg 50%
04:00 +21°C° 0 mm 1 m/s 733 mmHg 53%
05:00 +24°C° 0 mm 1 m/s 734 mmHg 48%
06:00 +26°C° 0 mm 1 m/s 734 mmHg 43%
07:00 +28°C° 0 mm 1 m/s 735 mmHg 38%
08:00 +30°C° 0 mm 1 m/s 735 mmHg 33%
09:00 +33°C° 0 mm 1 m/s 735 mmHg 28%
10:00 +37°C° 0 mm 2 m/s 734 mmHg 23%
11:00 +38°C° 0 mm 2 m/s 734 mmHg 20%
12:00 +40°C° 0 mm 2 m/s 734 mmHg 18%
13:00 +42°C° 0 mm 2 m/s 733 mmHg 16%
14:00 +41°C° 0 mm 2 m/s 733 mmHg 17%
15:00 +40°C° 0 mm 2 m/s 733 mmHg 19%
16:00 +40°C° 0 mm 3 m/s 732 mmHg 21%
17:00 +37°C° 0 mm 2 m/s 733 mmHg 27%
18:00 +34°C° 0 mm 2 m/s 733 mmHg 32%
19:00 +30°C° 0 mm 2 m/s 733 mmHg 38%
20:00 +29°C° 0 mm 2 m/s 734 mmHg 40%
21:00 +28°C° 0 mm 1 m/s 734 mmHg 41%
22:00 +27°C° 0 mm 1 m/s 735 mmHg 43%
23:00 +26°C° 0 mm 1 m/s 735 mmHg 45%

Depois de amanhã, 27 Julho, Terça-feira

Tempo Temperatura Precipitação Vento Pressão Humidade
00:00 +25°C° 0 mm 1 m/s 735 mmHg 47%
01:00 +23°C° 0 mm 0 m/s 735 mmHg 49%
02:00 +24°C° 0 mm 1 m/s 735 mmHg 50%
03:00 +24°C° 0 mm 1 m/s 735 mmHg 51%
04:00 +23°C° 0 mm 1 m/s 735 mmHg 53%
05:00 +26°C° 0 mm 1 m/s 735 mmHg 47%
06:00 +28°C° 0 mm 1 m/s 736 mmHg 41%
07:00 +28°C° 0 mm 0 m/s 736 mmHg 35%
08:00 +33°C° 0 mm 1 m/s 736 mmHg 30%
09:00 +36°C° 0 mm 1 m/s 735 mmHg 25%
10:00 +39°C° 0 mm 2 m/s 735 mmHg 20%
11:00 +41°C° 0 mm 2 m/s 735 mmHg 18%
12:00 +42°C° 0 mm 2 m/s 734 mmHg 15%
13:00 +45°C° 0 mm 2 m/s 734 mmHg 12%
14:00 +43°C° 0 mm 2 m/s 734 mmHg 12%
15:00 +43°C° 0 mm 2 m/s 733 mmHg 12%
16:00 +44°C° 0 mm 3 m/s 733 mmHg 12%
17:00 +40°C° 0 mm 2 m/s 733 mmHg 15%
18:00 +38°C° 0 mm 2 m/s 733 mmHg 17%
19:00 +35°C° 0 mm 2 m/s 733 mmHg 20%
20:00 +34°C° 0 mm 2 m/s 733 mmHg 23%
21:00 +31°C° 0 mm 2 m/s 734 mmHg 26%
22:00 +30°C° 0 mm 1 m/s 734 mmHg 29%
23:00 +29°C° 0 mm 1 m/s 734 mmHg 30%

28 Julho, Quarta-feira

Tempo Temperatura Precipitação Vento Pressão Humidade
00:00 +28°C° 0 mm 1 m/s 734 mmHg 32%
01:00 +27°C° 0 mm 1 m/s 734 mmHg 34%
02:00 +26°C° 0 mm 1 m/s 734 mmHg 35%
03:00 +24°C° 0 mm 0 m/s 734 mmHg 37%
04:00 +23°C° 0 mm 0 m/s 734 mmHg 39%
05:00 +25°C° 0 mm 0 m/s 735 mmHg 35%
06:00 +28°C° 0 mm 0 m/s 735 mmHg 32%
07:00 +30°C° 0 mm 0 m/s 735 mmHg 28%
08:00 +35°C° 0 mm 1 m/s 735 mmHg 25%
09:00 +37°C° 0 mm 1 m/s 735 mmHg 21%
10:00 +41°C° 0 mm 2 m/s 734 mmHg 18%
11:00 +42°C° 0 mm 2 m/s 734 mmHg 16%
12:00 +42°C° 0 mm 2 m/s 733 mmHg 14%
13:00 +43°C° 0 mm 2 m/s 733 mmHg 13%
14:00 +41°C° 0 mm 2 m/s 733 mmHg 17%
15:00 +39°C° 0 mm 2 m/s 733 mmHg 21%
16:00 +37°C° 0 mm 3 m/s 733 mmHg 25%
17:00 +35°C° 0 mm 2 m/s 733 mmHg 27%
18:00 +34°C° 0 mm 2 m/s 733 mmHg 28%
19:00 +31°C° 0 mm 1 m/s 733 mmHg 30%
20:00 +30°C° 0 mm 1 m/s 733 mmHg 31%
21:00 +29°C° 0 mm 1 m/s 733 mmHg 33%
22:00 +28°C° 0 mm 1 m/s 734 mmHg 35%
23:00 +27°C° 0 mm 1 m/s 733 mmHg 36%

29 Julho, Quinta-feira

Tempo Temperatura Precipitação Vento Pressão Humidade
00:00 +27°C° 0 mm 1 m/s 733 mmHg 36%
01:00 +26°C° 0 mm 1 m/s 733 mmHg 37%
02:00 +26°C° 0 mm 1 m/s 733 mmHg 38%
03:00 +25°C° 0 mm 1 m/s 733 mmHg 38%
04:00 +25°C° 0 mm 1 m/s 733 mmHg 39%
05:00 +27°C° 0 mm 1 m/s 733 mmHg 35%
06:00 +30°C° 0 mm 1 m/s 734 mmHg 30%
07:00 +32°C° 0 mm 1 m/s 734 mmHg 26%
08:00 +35°C° 0 mm 1 m/s 734 mmHg 23%
09:00 +38°C° 0 mm 2 m/s 734 mmHg 19%
10:00 +41°C° 0 mm 2 m/s 734 mmHg 16%
11:00 +43°C° 0 mm 3 m/s 733 mmHg 14%
12:00 +44°C° 0 mm 3 m/s 733 mmHg 13%
13:00 +45°C° 0 mm 3 m/s 732 mmHg 11%
14:00 +44°C° 0 mm 4 m/s 732 mmHg 11%
15:00 +44°C° 0 mm 4 m/s 731 mmHg 11%
16:00 +45°C° 0 mm 5 m/s 731 mmHg 12%
17:00 +41°C° 0 mm 4 m/s 731 mmHg 15%
18:00 +37°C° 0 mm 3 m/s 731 mmHg 18%
19:00 +35°C° 0 mm 2 m/s 731 mmHg 21%
20:00 +32°C° 0 mm 2 m/s 731 mmHg 22%
21:00 +31°C° 0 mm 1 m/s 732 mmHg 24%
22:00 +30°C° 0 mm 1 m/s 732 mmHg 26%
23:00 +29°C° 0 mm 1 m/s 732 mmHg 27%

30 Julho, Sexta-feira

Tempo Temperatura Precipitação Vento Pressão Humidade
00:00 +28°C° 0 mm 1 m/s 732 mmHg 28%
01:00 +27°C° 0 mm 1 m/s 731 mmHg 29%
02:00 +27°C° 0 mm 1 m/s 731 mmHg 30%
03:00 +26°C° 0 mm 1 m/s 731 mmHg 31%
04:00 +26°C° 0 mm 1 m/s 731 mmHg 32%
05:00 +26°C° 0 mm 0 m/s 731 mmHg 29%
06:00 +29°C° 0 mm 0 m/s 732 mmHg 25%
07:00 +31°C° 0 mm 0 m/s 732 mmHg 21%
08:00 +36°C° 0 mm 1 m/s 732 mmHg 19%
09:00 +39°C° 0 mm 1 m/s 731 mmHg 16%
10:00 +42°C° 0 mm 1 m/s 731 mmHg 13%
11:00 +43°C° 0 mm 2 m/s 731 mmHg 12%
12:00 +45°C° 0 mm 2 m/s 730 mmHg 11%
13:00 +46°C° 0 mm 3 m/s 729 mmHg 10%
14:00 +46°C° 0 mm 3 m/s 729 mmHg 10%
15:00 +46°C° 0 mm 3 m/s 729 mmHg 9%
16:00 +46°C° 0 mm 3 m/s 728 mmHg 9%
17:00 +43°C° 0 mm 3 m/s 728 mmHg 12%
18:00 +39°C° 0 mm 2 m/s 728 mmHg 14%
19:00 +36°C° 0 mm 2 m/s 728 mmHg 17%
20:00 +34°C° 0 mm 2 m/s 729 mmHg 19%
21:00 +31°C° 0 mm 2 m/s 729 mmHg 21%
22:00 +30°C° 0 mm 2 m/s 729 mmHg 23%
23:00 +29°C° 0 mm 1 m/s 729 mmHg 24%
Mostrar mais

Necessitamos do seu Consentimento

A Meteoprog e os seus Fornecedores de Serviços podem armazenar e aceder a dados pessoais como cookies, identificadores do dispositivo ou outras tecnologias semelhantes existentes no seu dispositivo e processar estes dados para personalizar conteúdos e anúncios, assim como funcionalidades nas redes sociais e análise de tráfego.

  • Armazenar e/ou aceder a informações no seu dispositivo

    Os cookies, identificadores do dispositivo ou outras informações podem ser armazenados ou acedidos no seu dispositivo, para os fins acima indicados.

  • Anúncios e conteúdos personalizados, medição de anúncios e conteúdos, dados sobre o público-alvo e desenvolvimento de produtos

    Os anúncios e os conteúdos podem ser personalizados com base num perfil. Podem ser adicionados dados adicionais para uma maior personalização dos anúncios e dos conteúdos. A eficácia dos anúncios e dos conteúdos pode ser medida. Podem ser obtidas informações sobre o público que visualizou os anúncios e os conteúdos. Estes dados podem ser usados para desenvolver ou melhorar sistemas, softwares ou a experiência do utilizador.

Ao clicar em "Eu concordo”, permitirá o uso de cookies, identificadores do dispositivo e web beacons mencionados ou outras tecnologias semelhantes. As configurações do navegador do seu dispositivo podem ser alteradas.

Para certos fins, podem ser invocados interesses legítimos ao invés de consentimento. Pode ler mais informação sobre este assunto na nossa Política de Privacidade e Cookies.